Wind_Speed
11 12 10 8 7 7 8 9 10 11 14 17 18 20 23 25 27 29 28 28 27 28 29 32 35 38 41 43 44 39 27 29 29 27 26 21 14 11 10 13 19 27 35 42 45 61 71
9 9 9 6 5 4 6 8 10 11 13 15 17 19 22 26 29 31 31 31 31 30 30 31 34 37 41 41 44 44 33 29 29 28 27 22 15 9 9 10 15 24 31 38 52 49 65
7 8 9 7 5 4 5 8 10 11 13 14 16 19 21 24 28 31 34 35 35 34 33 32 33 35 37 40 42 44 40 32 30 30 28 22 14 11 9 8 9 16 25 32 37 47 58
9 9 9 8 7 7 6 6 9 11 12 15 18 20 20 21 24 28 32 36 36 39 37 36 34 35 35 39 42 43 44 38 32 32 31 24 16 12 8 6 5 10 18 24 31 37 54
13 11 10 11 10 9 8 9 8 11 14 15 17 20 21 21 22 25 29 33 36 38 38 39 37 37 38 38 40 41 42 43 37 32 32 29 20 14 12 8 4 5 9 18 25 28 47
15 14 13 12 13 12 12 11 12 12 14 16 18 20 20 19 20 23 26 29 33 36 38 39 41 41 43 41 39 40 40 42 42 35 31 31 26 18 14 9 0 4 10 16 20 25 38
17 17 15 16 16 14 16 15 14 14 15 16 19 20 23 21 20 21 23 25 30 33 36 39 40 42 43 43 43 40 39 39 40 40 32 29 29 23 16 12 7 1 6 13 17 20 27
20 19 18 18 18 19 17 19 17 16 16 18 20 22 22 23 21 21 23 24 27 31 32 36 37 41 40 42 43 44 42 38 36 37 36 31 27 25 21 14 9 5 3 9 13 18 21
22 23 21 20 21 22 21 22 21 19 19 20 21 22 23 23 23 23 23 24 27 28 30 31 35 37 39 41 42 42 42 40 37 34 35 33 28 24 22 19 12 6 3 3 8 12 17
25 25 26 24 23 23 22 23 24 23 21 21 22 22 23 23 23 24 24 26 28 28 29 31 32 33 36 38 42 42 42 41 41 37 32 32 30 27 21 20 17 10 5 1 4 10 16
27 29 28 28 26 26 23 24 26 25 24 24 23 23 24 24 24 24 24 24 28 30 32 32 32 33 34 36 37 40 41 40 41 40 36 32 28 27 25 19 16 13 9 6 4 7 12
30 31 32 30 29 28 27 25 25 27 25 27 26 25 25 25 24 26 25 26 27 29 29 30 32 33 33 33 34 36 37 37 36 37 37 35 31 28 24 22 19 13 11 8 7 8 13
30 34 35 33 32 32 30 31 29 28 29 29 26 28 26 26 27 26 25 27 27 28 29 30 31 32 31 32 33 33 35 37 35 35 37 33 33 31 27 21 19 17 16 11 10 8 11
36 40 40 39 34 38 36 32 33 32 33 30 28 28 29 28 29 29 27 28 29 29 29 30 31 32 32 32 32 33 34 35 35 35 36 34 34 32 30 27 23 19 17 15 13 12 11
48 49 42 44 40 38 39 36 36 34 33 31 28 30 32 30 31 32 30 28 29 31 31 32 32 32 32 31 32 36 34 34 32 34 35 37 30 30 30 29 28 24 20 16 13 12 11
50 44 43 46 44 42 40 39 36 41 34 34 36 31 33 33 32 34 33 31 31 31 33 33 35 33 34 32 33 36 35 35 33 33 33 33 31 31 31 27 28 28 24 21 20 16 14
50 42 41 41 31 36 42 43 44 40 38 36 37 32 33 34 36 35 35 33 34 32 35 36 36 36 35 37 33 33 33 36 34 34 35 35 29 30 32 30 26 27 27 23 20 19 19
47 50 50 37 35 36 39 45 44 41 42 37 37 38 34 37 40 39 37 37 36 35 36 34 38 36 36 37 37 36 34 37 38 38 38 35 33 29 27 29 27 23 25 26 26 24 22
46 52 47 42 34 39 40 41 43 45 42 37 38 38 38 39 42 43 39 38 43 41 37 37 38 37 38 37 41 38 37 38 37 38 37 36 37 36 31 29 31 26 24 25 27 24 18
39 47 44 46 36 37 30 28 32 42 40 39 42 39 38 41 42 46 48 45 46 43 40 40 40 41 42 38 38 43 44 42 39 36 38 39 34 33 31 36 35 30 27 30 29 25 22
37 34 34 35 32 39 39 34 31 35 41 44 47 45 40 43 43 48 46 49 47 47 41 42 40 42 42 39 43 44 44 45 40 37 39 38 34 34 26 31 29 29 25 27 33 27 30
34 31 30 28 31 37 31 32 30 31 36 43 47 48 40 44 47 48 45 48 49 47 45 44 43 46 42 40 45 43 48 44 39 40 39 34 33 37 22 26 26 21 22 30 34 32 35
34 33 33 34 37 39 40 39 34 31 27 31 41 42 42 43 42 44 47 49 49 46 44 41 46 47 43 42 41 41 44 42 42 40 37 36 32 34 35 28 31 20 21 27 32 32 31
36 39 40 41 41 42 43 44 42 36 38 38 43 44 45 42 41 39 42 45 47 45 42 43 39 38 38 38 42 41 38 36 33 34 33 32 37 39 40 36 43 41 23 27 32 30 30
34 36 35 39 46 46 46 44 43 43 44 44 40 39 42 41 40 39 40 39 37 37 38 36 36 38 41 39 36 35 33 32 32 34 32 30 34 38 40 42 46 46 34 32 36 35 35
31 34 30 31 37 38 36 32 31 32 35 37 38 37 38 37 36 38 38 35 33 34 35 35 35 35 32 31 33 35 36 38 43 47 46 47 40 40 42 48 53 52 43 47 48 42 44
28 31 31 30 32 32 32 30 30 32 32 34 35 34 33 35 34 36 32 34 31 30 29 27 28 29 31 35 38 41 44 47 52 54 53 54 53 53 50 52 56 54 51 50 44 46 48
26 31 32 32 28 32 31 33 32 32 31 31 33 34 33 33 33 28 29 27 27 29 33 35 36 36 39 41 44 45 52 56 57 55 55 54 56 55 55 56 55 55 53 52 47 46 47
30 33 34 35 31 35 34 35 36 35 34 34 33 33 32 33 34 31 29 33 35 39 42 45 44 44 47 51 54 57 57 58 57 58 55 58 59 60 62 61 59 59 58 56 58 55 55
Wind_Direction
17 24 21 25 36 38 26 22 20 21 16 13 13 15 13 12 12 13 11 5 360 358 1 2 5 7 8 8 8 8 355 359 359 356 351 349 343 315 291 264 237 223 217 211 210 214 209
360 10 6 6 10 30 19 11 9 10 12 16 13 11 13 13 13 13 13 12 8 3 3 3 5 8 9 10 10 11 7 1 3 3 1 355 351 328 310 283 241 222 216 212 209 212 212
333 340 349 337 329 340 4 5 359 356 360 4 3 2 6 9 11 12 11 12 12 11 7 6 6 8 7 11 13 13 12 8 7 6 1 1 1 346 331 308 256 225 219 207 213 213 209
312 316 325 315 313 314 332 339 345 340 345 348 355 355 355 0 6 5 7 10 12 12 12 13 9 11 9 13 14 14 13 15 11 11 11 11 9 7 357 358 289 225 219 207 206 210 210
296 296 301 304 304 298 302 310 324 327 334 338 344 348 350 349 357 1 4 8 10 12 15 17 15 17 15 16 15 14 15 15 18 15 17 18 18 20 21 34 2 227 209 205 203 206 212
291 289 288 286 291 292 293 301 311 315 323 329 334 339 344 348 348 356 360 2 9 9 13 12 15 18 21 20 19 16 15 17 17 20 19 21 24 29 31 53 43 232 207 201 203 201 212
283 285 280 280 279 283 288 292 297 304 316 323 326 334 341 344 345 350 355 358 3 5 6 11 14 14 17 20 22 21 19 17 18 20 19 21 25 26 27 38 56 63 196 201 202 201 215
281 281 280 278 276 278 284 287 290 297 308 314 320 326 334 342 344 347 353 353 357 1 3 8 11 14 14 17 19 21 22 20 17 20 23 20 22 25 27 29 42 61 189 203 198 201 217
279 284 282 280 279 279 284 285 285 290 299 307 312 319 326 336 342 344 347 351 351 357 358 3 4 11 12 12 15 20 22 23 21 20 23 23 23 20 24 26 26 41 51 205 204 204 219
275 278 281 280 276 278 276 284 283 286 291 296 304 311 318 326 333 339 342 346 348 350 353 357 2 6 8 11 12 13 16 20 23 21 21 25 22 23 18 21 24 17 19 15 220 218 223
275 278 277 278 278 276 270 276 281 281 287 291 297 305 311 318 325 329 335 341 345 345 347 349 354 357 360 5 7 8 10 13 17 21 20 19 19 20 22 18 14 20 16 358 295 248 232
278 275 275 274 276 275 274 274 275 278 282 286 291 299 305 310 316 319 326 332 336 339 344 344 346 351 353 356 360 3 3 7 12 14 18 19 15 18 19 22 20 3 360 344 319 283 259
277 276 274 274 275 275 270 272 270 274 277 281 286 292 295 302 307 309 315 321 323 330 336 338 339 343 347 349 351 355 360 0 1 7 9 12 15 16 17 13 18 19 11 348 332 314 288
288 286 279 269 273 272 271 265 267 269 269 276 281 287 289 295 298 301 307 313 317 320 326 329 332 333 336 341 344 346 349 354 357 355 358 4 8 10 9 12 5 1 9 8 356 331 314
288 286 280 267 271 280 263 263 264 264 272 270 278 282 282 288 293 295 298 304 309 314 316 320 324 325 329 332 337 341 340 343 347 351 352 356 358 1 360 0 2 1 358 353 355 346 332
284 275 285 281 275 281 260 263 258 268 268 271 276 277 279 283 288 292 293 294 300 306 310 312 318 321 324 325 330 335 333 335 337 339 344 344 351 351 354 350 352 355 352 353 350 343 348
283 266 283 283 282 280 271 263 259 258 262 267 274 276 279 280 284 286 289 289 293 298 300 304 308 313 317 320 322 326 324 327 330 332 332 332 335 339 340 346 345 344 344 343 342 342 335
272 269 280 272 276 279 279 273 275 257 256 260 266 269 274 272 281 285 286 285 286 290 294 299 301 306 310 313 314 318 318 322 322 323 325 328 326 327 331 329 334 335 336 332 332 335 337
280 274 274 262 280 281 277 275 277 263 261 262 263 270 272 272 278 279 282 283 283 287 289 290 296 301 305 309 307 314 311 316 318 320 321 325 328 325 325 328 322 333 327 322 315 321 320
279 273 267 266 279 277 277 281 281 274 279 272 269 270 269 272 277 277 286 280 287 289 288 291 293 296 298 303 301 307 309 313 314 315 318 316 319 317 318 317 311 315 320 313 307 311 308
277 267 267 267 265 263 271 287 281 281 276 274 276 267 270 271 271 277 284 283 286 289 289 289 294 295 295 297 297 299 305 306 307 308 312 310 314 312 320 313 306 309 315 302 303 304 298
278 266 263 260 257 262 279 283 283 283 284 282 279 274 272 274 279 282 278 282 284 288 290 290 294 294 293 291 295 303 304 311 308 310 313 306 310 307 317 304 303 317 307 300 301 302 300
278 266 261 257 259 260 272 290 285 277 280 287 287 277 280 284 282 283 282 281 284 284 288 291 291 289 290 286 293 301 305 302 306 308 308 312 309 304 308 310 306 318 308 290 292 303 303
284 267 263 263 263 267 272 281 279 276 273 283 288 288 288 287 282 285 285 284 288 286 289 289 289 288 289 289 293 294 296 300 303 301 303 307 307 304 303 306 306 309 314 302 293 296 302
283 276 279 277 274 276 279 280 277 274 276 281 283 282 279 284 289 287 286 285 282 281 285 288 288 290 290 292 293 292 295 296 294 290 292 291 292 295 297 297 298 300 304 295 294 297 293
278 284 283 287 287 286 283 281 277 273 268 271 278 280 284 288 293 286 285 288 285 286 288 291 289 290 295 298 296 297 298 298 295 297 302 300 297 292 294 293 294 295 302 299 297 297 286
274 273 279 282 286 289 291 287 283 280 281 281 281 284 287 288 289 287 289 287 288 289 294 290 288 289 294 293 294 294 294 293 294 295 296 294 296 295 296 291 288 292 294 292 292 288 286
268 273 273 275 284 286 292 291 288 284 283 284 283 285 287 292 292 295 289 288 290 293 292 289 288 289 288 287 288 289 291 292 293 293 291 294 294 295 290 287 292 293 293 291 288 284 284
259 265 269 270 279 286 293 292 289 288 289 287 284 286 294 295 296 293 291 291 294 291 292 293 294 294 293 293 293 293 292 291 292 291 290 291 292 289 286 290 288 288 286 284 282 284 281
Height
5841 5839 5838 5836 5834 5834 5833 5832 5830 5827 5825 5823 5820 5816 5813 5808 5803 5798 5793 5787 5782 5775 5768 5761 5753 5745 5736 5726 5717 5706 5699 5693 5686 5679 5672 5666 5662 5659 5658 5657 5657 5660 5663 5668 5682 5686 5699
5841 5839 5838 5837 5836 5834 5833 5832 5830 5827 5825 5822 5820 5816 5813 5808 5803 5798 5794 5787 5781 5774 5767 5760 5752 5744 5735 5728 5717 5707 5699 5692 5685 5678 5672 5666 5661 5658 5657 5655 5655 5657 5661 5666 5672 5679 5692
5841 5840 5838 5837 5836 5834 5832 5831 5829 5828 5825 5822 5820 5816 5812 5808 5803 5799 5793 5787 5781 5774 5766 5759 5752 5744 5738 5729 5718 5709 5700 5693 5686 5679 5672 5666 5661 5658 5656 5654 5655 5657 5660 5663 5671 5679 5687
5840 5839 5838 5836 5835 5834 5832 5830 5828 5827 5824 5822 5819 5816 5812 5808 5803 5799 5794 5787 5781 5775 5767 5759 5752 5745 5738 5729 5719 5711 5703 5695 5687 5681 5674 5667 5662 5659 5657 5656 5656 5658 5661 5665 5670 5677 5686
5839 5838 5836 5836 5834 5833 5831 5829 5827 5826 5824 5821 5818 5815 5812 5808 5804 5799 5793 5787 5782 5776 5769 5761 5754 5745 5737 5729 5721 5713 5705 5698 5690 5683 5676 5670 5665 5662 5660 5658 5659 5660 5664 5666 5670 5677 5684
5837 5836 5835 5833 5832 5831 5830 5828 5826 5824 5822 5820 5818 5815 5811 5806 5802 5798 5793 5788 5782 5777 5770 5764 5755 5749 5739 5732 5724 5716 5709 5700 5693 5685 5681 5674 5669 5664 5663 5662 5662 5662 5664 5667 5670 5676 5685
5832 5832 5832 5831 5830 5828 5827 5826 5824 5822 5820 5818 5816 5813 5810 5805 5801 5797 5793 5788 5784 5778 5771 5763 5757 5749 5742 5735 5727 5720 5711 5704 5697 5689 5683 5679 5674 5670 5666 5665 5664 5664 5666 5668 5672 5678 5684
5829 5828 5828 5827 5827 5826 5824 5823 5821 5820 5818 5816 5814 5811 5808 5804 5800 5796 5791 5787 5782 5778 5772 5765 5759 5751 5745 5738 5730 5721 5714 5708 5702 5695 5688 5683 5679 5675 5672 5669 5667 5667 5668 5670 5673 5677 5683
5826 5826 5825 5824 5823 5823 5822 5820 5819 5817 5815 5814 5811 5809 5806 5803 5799 5795 5790 5786 5781 5777 5773 5767 5760 5754 5747 5740 5732 5725 5719 5712 5705 5699 5693 5688 5683 5679 5676 5674 5671 5670 5670 5671 5674 5677 5681
5820 5820 5821 5820 5819 5818 5818 5817 5816 5814 5812 5810 5808 5806 5804 5801 5799 5794 5789 5784 5780 5775 5771 5767 5761 5755 5749 5742 5735 5727 5721 5716 5709 5703 5698 5693 5688 5684 5680 5677 5675 5673 5673 5673 5674 5676 5680
5815 5815 5814 5814 5814 5814 5813 5812 5811 5810 5808 5806 5805 5802 5801 5798 5796 5792 5789 5783 5779 5774 5770 5766 5760 5754 5749 5744 5739 5732 5725 5719 5712 5707 5703 5697 5691 5688 5684 5680 5678 5677 5675 5675 5675 5676 5679
5810 5809 5808 5808 5807 5808 5808 5807 5806 5805 5803 5802 5801 5799 5797 5795 5793 5790 5786 5782 5778 5775 5769 5765 5760 5754 5749 5744 5739 5734 5729 5724 5717 5712 5705 5700 5695 5690 5687 5683 5680 5678 5677 5676 5675 5675 5677
5802 5803 5803 5801 5801 5800 5801 5802 5801 5800 5799 5796 5796 5795 5792 5791 5789 5786 5783 5780 5778 5772 5769 5764 5759 5754 5749 5744 5739 5735 5730 5725 5718 5714 5708 5703 5698 5693 5689 5686 5683 5680 5678 5676 5676 5674 5674
5796 5796 5796 5794 5793 5793 5793 5793 5794 5794 5792 5791 5790 5789 5788 5786 5784 5782 5780 5777 5773 5770 5766 5762 5757 5753 5748 5742 5740 5734 5729 5724 5720 5714 5709 5703 5697 5695 5691 5687 5684 5681 5679 5677 5675 5674 5673
5790 5787 5787 5785 5785 5782 5783 5785 5786 5786 5786 5785 5783 5783 5781 5780 5779 5777 5775 5773 5769 5766 5762 5758 5754 5751 5747 5743 5737 5732 5728 5724 5719 5715 5710 5705 5700 5696 5692 5688 5685 5680 5679 5677 5675 5673 5672
5780 5779 5776 5777 5775 5775 5774 5776 5778 5778 5779 5778 5776 5776 5775 5774 5772 5771 5770 5767 5763 5760 5757 5754 5749 5747 5742 5739 5734 5729 5725 5722 5718 5714 5710 5706 5702 5696 5693 5689 5685 5681 5678 5675 5673 5671 5670
5770 5770 5769 5768 5767 5767 5767 5767 5767 5769 5770 5770 5769 5768 5769 5767 5766 5764 5763 5761 5758 5755 5751 5750 5746 5741 5738 5734 5732 5728 5724 5720 5715 5711 5707 5703 5701 5697 5691 5686 5684 5680 5676 5674 5672 5670 5668
5762 5761 5762 5761 5761 5760 5758 5759 5758 5758 5760 5760 5761 5760 5762 5760 5759 5756 5756 5753 5752 5749 5745 5743 5740 5736 5732 5728 5725 5723 5720 5715 5711 5706 5701 5698 5695 5693 5691 5686 5682 5680 5675 5672 5669 5668 5665
5751 5751 5750 5751 5751 5753 5751 5749 5750 5749 5749 5751 5751 5752 5753 5752 5750 5749 5747 5746 5742 5741 5738 5735 5734 5730 5727 5724 5717 5718 5714 5712 5707 5702 5696 5693 5688 5684 5683 5683 5678 5676 5673 5669 5666 5664 5664
5739 5739 5739 5740 5742 5743 5743 5742 5742 5742 5741 5743 5743 5742 5745 5743 5741 5739 5737 5737 5735 5732 5729 5727 5726 5723 5719 5718 5714 5708 5706 5704 5701 5697 5693 5686 5687 5684 5680 5675 5672 5670 5669 5662 5659 5659 5657
5730 5731 5730 5732 5733 5737 5738 5735 5733 5733 5733 5734 5733 5732 5733 5732 5732 5730 5728 5726 5726 5721 5721 5719 5718 5715 5711 5709 5704 5702 5700 5697 5695 5691 5687 5682 5679 5676 5678 5672 5668 5666 5665 5660 5654 5654 5648
5722 5723 5724 5724 5727 5729 5729 5728 5726 5724 5725 5725 5724 5723 5723 5722 5721 5720 5717 5717 5715 5713 5710 5710 5708 5705 5703 5701 5695 5693 5689 5687 5685 5682 5679 5676 5672 5665 5671 5666 5661 5661 5660 5654 5650 5648 5645
5718 5718 5719 5718 5719 5719 5721 5720 5719 5718 5716 5716 5716 5714 5712 5713 5712 5710 5708 5707 5704 5701 5701 5700 5697 5694 5692 5691 5688 5685 5682 5679 5677 5673 5671 5666 5665 5661 5657 5659 5654 5657 5654 5649 5645 5642 5639
5713 5712 5713 5714 5713 5712 5713 5712 5710 5709 5708 5707 5707 5705 5704 5703 5700 5698 5696 5694 5693 5691 5689 5690 5687 5682 5683 5681 5678 5676 5675 5671 5669 5667 5665 5663 5657 5653 5649 5649 5643 5641 5647 5642 5637 5635 5633
5705 5705 5705 5706 5707 5704 5703 5701 5700 5699 5698 5696 5696 5695 5694 5692 5690 5688 5685 5684 5682 5681 5679 5678 5678 5675 5672 5671 5667 5664 5664 5662 5659 5657 5657 5656 5652 5646 5642 5640 5636 5633 5640 5636 5631 5632 5627
5696 5699 5699 5698 5701 5698 5695 5692 5689 5688 5688 5686 5685 5684 5684 5682 5681 5678 5676 5674 5672 5671 5670 5669 5666 5664 5665 5662 5658 5656 5655 5651 5647 5642 5640 5639 5640 5637 5636 5630 5624 5623 5626 5620 5618 5619 5614
5688 5689 5689 5687 5689 5689 5689 5686 5683 5680 5678 5677 5677 5676 5674 5673 5673 5669 5667 5665 5664 5662 5661 5658 5658 5658 5657 5654 5650 5647 5644 5641 5637 5634 5633 5628 5625 5623 5622 5616 5611 5611 5611 5608 5609 5607 5600
5678 5681 5680 5683 5679 5681 5679 5678 5676 5674 5671 5669 5668 5666 5665 5664 5664 5661 5659 5658 5655 5654 5653 5650 5650 5650 5646 5643 5640 5637 5633 5629 5626 5625 5620 5618 5611 5609 5606 5601 5600 5598 5595 5592 5592 5588 5586
5669 5671 5672 5672 5668 5670 5669 5669 5667 5666 5663 5661 5661 5658 5655 5654 5655 5653 5653 5650 5648 5644 5642 5640 5639 5635 5629 5626 5624 5620 5618 5614 5614 5610 5609 5605 5600 5594 5591 5589 5585 5580 5578 5578 5574 5572 5570